Morris, MN

11:39 AM CDT on September 24, 2017 (GMT -0500)
Morris Municipal

Weather History for KMOX - August, 2013

Change the Weather History Date:

Saturday, August 17, 2013

  Actual Average Record
Temperature  
Mean Temperature 66 °F -  
Max Temperature 80 °F 75 °F 93 °F (2003)
Min Temperature 53 °F 53 °F 41 °F (2012)
Cooling Degree Days 2    
Growing Degree Days 16 (Base 50)    
Moisture  
Dew Point 60 °F    
Average Humidity 78    
Maximum Humidity 100    
Minimum Humidity 54    
Precipitation  
Precipitation 0.00 in - - ()
Sea Level Pressure  
Sea Level Pressure 30.09 in    
Wind  
Wind Speed 9 mph (SSE)    
Max Wind Speed 20 mph    
Max Gust Speed 24 mph    
Visibility 9 miles    
Events      
Averages and records for this station are not official NWS values.
T = Trace of Precipitation, MM = Missing Value Source: NWS Daily Summary

Daily Weather History Graph

Daily Weather History Graph

Search for Another Location

Airport or City:

Trip Planner

Search our weather history database for the weather conditions in past years. The results will help you decide how hot, cold, wet, or windy it might be!

Date:

Astronomy

Aug. 17, 2013 Rise Set
Actual Time 6:27 AM CDT 8:27 PM CDT
Civil Twilight 5:55 AM CDT 8:59 PM CDT
Nautical Twilight 5:15 AM CDT 9:39 PM CDT
Astronomical Twilight 4:31 AM CDT 10:22 PM CDT
Moon 5:49 PM CDT (8/17) 2:25 AM CDT (8/17)
Length of Visible Light 15h 04m
Length of Day
14h 00m
Waxing Gibbous, 84% of the Moon is Illuminated
Aug 17
Waxing Gibbous
Aug 20
Full
Aug 28
Last Quarter
Sep 5
New
Sep 12
First Quarter

Hourly Weather History & Observations

Time (CDT) Temp. Heat Index Dew Point Humidity Pressure Visibility Wind Dir Wind Speed Gust Speed Precip Events Conditions
12:08 AM 57.2 °F - 55.4 °F 94% 30.15 in 10.0 mi South 5.8 mph - N/A   Clear
12:28 AM 57.2 °F - 55.4 °F 94% 30.14 in 10.0 mi South 5.8 mph - N/A   Clear
12:48 AM 55.4 °F - 53.6 °F 94% 30.14 in 10.0 mi SSE 4.6 mph - N/A   Clear
1:08 AM 55.4 °F - 53.6 °F 94% 30.14 in 10.0 mi SSE 4.6 mph - N/A   Clear
1:28 AM 55.4 °F - 53.6 °F 94% 30.14 in 10.0 mi SSE 5.8 mph - N/A   Clear
1:48 AM 55.4 °F - 53.6 °F 94% 30.14 in 7.0 mi SSE 4.6 mph - N/A   Clear
2:08 AM 53.6 °F - 53.6 °F 100% 30.14 in 7.0 mi SE 6.9 mph - N/A   Clear
2:28 AM 53.6 °F - 53.6 °F 100% 30.13 in 7.0 mi SE 6.9 mph - N/A   Clear
2:48 AM 53.6 °F - 53.6 °F 100% 30.13 in 5.0 mi SE 5.8 mph - N/A   Clear
3:08 AM 53.6 °F - 53.6 °F 100% 30.13 in 5.0 mi SE 6.9 mph - N/A   Clear
3:28 AM 53.6 °F - 53.6 °F 100% 30.13 in 5.0 mi SSE 6.9 mph - N/A   Clear
3:48 AM 53.6 °F - 53.6 °F 100% 30.13 in 5.0 mi SSE 6.9 mph - N/A   Clear
4:08 AM 53.6 °F - 53.6 °F 100% 30.13 in 5.0 mi SSE 6.9 mph - N/A   Clear
4:28 AM 53.6 °F - 53.6 °F 100% 30.13 in 5.0 mi SE 8.1 mph - N/A   Clear
4:48 AM 53.6 °F - 53.6 °F 100% 30.13 in 5.0 mi SSE 5.8 mph - N/A   Clear
5:08 AM 53.6 °F - 53.6 °F 100% 30.12 in 7.0 mi SSE 5.8 mph - N/A   Clear
5:28 AM 53.6 °F - 53.6 °F 100% 30.12 in 5.0 mi SSE 5.8 mph - N/A   Scattered Clouds
5:48 AM 53.6 °F - 53.6 °F 100% 30.13 in 5.0 mi SSE 6.9 mph - N/A   Clear
6:08 AM 53.6 °F - 53.6 °F 100% 30.13 in 5.0 mi SSE 6.9 mph - N/A   Scattered Clouds
6:28 AM 55.4 °F - 53.6 °F 94% 30.13 in 5.0 mi SE 6.9 mph - N/A   Mostly Cloudy
6:48 AM 55.4 °F - 55.4 °F 100% 30.13 in 5.0 mi SE 6.9 mph - N/A   Mostly Cloudy
7:08 AM 55.4 °F - 55.4 °F 100% 30.13 in 4.0 mi SE 6.9 mph - N/A   Scattered Clouds
7:28 AM 57.2 °F - 57.2 °F 100% 30.13 in 5.0 mi SSE 8.1 mph - N/A   Scattered Clouds
7:48 AM 59.0 °F - 57.2 °F 94% 30.13 in 7.0 mi SSE 8.1 mph - N/A   Scattered Clouds
8:08 AM 60.8 °F - 57.2 °F 88% 30.13 in 10.0 mi South 8.1 mph - N/A   Mostly Cloudy
8:28 AM 62.6 °F - 59.0 °F 88% 30.13 in 10.0 mi South 11.5 mph - N/A   Overcast
8:48 AM 64.4 °F - 60.8 °F 88% 30.13 in 10.0 mi South 11.5 mph - N/A   Mostly Cloudy
9:08 AM 66.2 °F - 60.8 °F 83% 30.13 in 10.0 mi South 9.2 mph - N/A   Mostly Cloudy
9:28 AM 66.2 °F - 60.8 °F 83% 30.12 in 10.0 mi South 11.5 mph 16.1 mph N/A   Scattered Clouds
9:48 AM 69.8 °F - 60.8 °F 73% 30.11 in 10.0 mi South 11.5 mph - N/A   Scattered Clouds
10:08 AM 71.6 °F - 60.8 °F 69% 30.12 in 10.0 mi South 11.5 mph - N/A   Clear
10:28 AM 71.6 °F - 60.8 °F 69% 30.12 in 10.0 mi South 15.0 mph - N/A   Clear
10:48 AM 73.4 °F - 60.8 °F 65% 30.11 in 10.0 mi South 16.1 mph - N/A   Clear
11:08 AM 73.4 °F - 62.6 °F 69% 30.11 in 10.0 mi South 13.8 mph 21.9 mph N/A   Clear
11:28 AM 75.2 °F - 62.6 °F 65% 30.11 in 10.0 mi South 16.1 mph 20.7 mph N/A   Clear
11:48 AM 75.2 °F - 62.6 °F 65% 30.11 in 10.0 mi South 16.1 mph 19.6 mph N/A   Clear
12:08 PM 75.2 °F - 62.6 °F 65% 30.10 in 10.0 mi South 15.0 mph 20.7 mph N/A   Clear
12:28 PM 77.0 °F - 64.4 °F 65% 30.10 in 10.0 mi South 13.8 mph 20.7 mph N/A   Scattered Clouds
12:48 PM 77.0 °F - 62.6 °F 61% 30.09 in 10.0 mi South 17.3 mph 24.2 mph N/A   Scattered Clouds
1:08 PM 78.8 °F - 64.4 °F 61% 30.09 in 10.0 mi South 15.0 mph 23.0 mph N/A   Scattered Clouds
1:28 PM 78.8 °F - 62.6 °F 57% 30.08 in 10.0 mi South 16.1 mph - N/A   Scattered Clouds
1:48 PM 78.8 °F - 64.4 °F 61% 30.08 in 10.0 mi South 10.4 mph 21.9 mph N/A   Scattered Clouds
2:08 PM 78.8 °F - 64.4 °F 61% 30.07 in 10.0 mi South 16.1 mph 20.7 mph N/A   Scattered Clouds
2:28 PM 80.6 °F 82.3 °F 64.4 °F 58% 30.06 in 10.0 mi South 12.7 mph 20.7 mph N/A   Scattered Clouds
2:48 PM 78.8 °F - 62.6 °F 57% 30.06 in 10.0 mi South 19.6 mph 24.2 mph N/A   Scattered Clouds
3:08 PM 78.8 °F - 62.6 °F 57% 30.06 in 10.0 mi South 16.1 mph 21.9 mph N/A   Mostly Cloudy
3:28 PM 80.6 °F 81.8 °F 62.6 °F 54% 30.06 in 10.0 mi South 16.1 mph 21.9 mph N/A   Scattered Clouds
3:48 PM 78.8 °F - 62.6 °F 57% 30.05 in 10.0 mi South 17.3 mph 23.0 mph N/A   Mostly Cloudy
4:08 PM 80.6 °F 81.8 °F 62.6 °F 54% 30.05 in 10.0 mi South 15.0 mph 19.6 mph N/A   Scattered Clouds
4:28 PM 80.6 °F 82.3 °F 64.4 °F 58% 30.05 in 10.0 mi South 16.1 mph - N/A   Scattered Clouds
4:48 PM 80.6 °F 81.8 °F 62.6 °F 54% 30.05 in 10.0 mi South 12.7 mph 20.7 mph N/A   Scattered Clouds
5:08 PM 80.6 °F 82.3 °F 64.4 °F 58% 30.04 in 10.0 mi South 17.3 mph - N/A   Scattered Clouds
5:28 PM 80.6 °F 81.8 °F 62.6 °F 54% 30.05 in 10.0 mi South 15.0 mph 20.7 mph N/A   Scattered Clouds
5:48 PM 78.8 °F - 62.6 °F 57% 30.04 in 10.0 mi SSE 13.8 mph - N/A   Scattered Clouds
6:08 PM 78.8 °F - 64.4 °F 61% 30.04 in 10.0 mi South 13.8 mph - N/A   Clear
6:28 PM 78.8 °F - 64.4 °F 61% 30.04 in 10.0 mi South 15.0 mph 19.6 mph N/A   Clear
6:48 PM 78.8 °F - 62.6 °F 57% 30.04 in 10.0 mi South 13.8 mph 20.7 mph N/A   Clear
7:08 PM 77.0 °F - 62.6 °F 61% 30.04 in 10.0 mi South 13.8 mph - N/A   Clear
7:28 PM 75.2 °F - 62.6 °F 65% 30.04 in 10.0 mi South 11.5 mph - N/A   Clear
7:48 PM 75.2 °F - 62.6 °F 65% 30.04 in 10.0 mi South 10.4 mph - N/A   Clear
8:08 PM 73.4 °F - 62.6 °F 69% 30.04 in 10.0 mi South 9.2 mph - N/A   Clear
8:28 PM 71.6 °F - 62.6 °F 73% 30.04 in 10.0 mi South 9.2 mph - N/A   Clear
8:48 PM 69.8 °F - 62.6 °F 78% 30.04 in 10.0 mi South 10.4 mph - N/A   Clear
9:08 PM 69.8 °F - 62.6 °F 78% 30.04 in 10.0 mi South 10.4 mph - N/A   Clear
9:28 PM 68.0 °F - 60.8 °F 78% 30.04 in 10.0 mi South 9.2 mph - N/A   Clear
9:48 PM 66.2 °F - 60.8 °F 83% 30.04 in 10.0 mi South 10.4 mph - N/A   Clear
10:08 PM 66.2 °F - 60.8 °F 83% 30.04 in 10.0 mi South 10.4 mph - N/A   Clear
10:28 PM 66.2 °F - 60.8 °F 83% 30.05 in 10.0 mi South 10.4 mph - N/A   Clear
10:48 PM 66.2 °F - 60.8 °F 83% 30.05 in 10.0 mi South 9.2 mph - N/A   Clear
11:08 PM 64.4 °F - 60.8 °F 88% 30.05 in 10.0 mi South 9.2 mph - N/A   Clear
11:28 PM 64.4 °F - 60.8 °F 88% 30.05 in 10.0 mi South 8.1 mph - N/A   Clear
11:48 PM 64.4 °F - 60.8 °F 88% 30.05 in 10.0 mi South 8.1 mph - N/A   Clear